Wind_Speed
18 18 18 19 19 20 20 20 21 21 21 22 22 23 21 20 21 20 19 17 17 18 17 16 15 14 14 12 12 11 10 9 8 7 6 5 4 4 4 4 5 6 7 8
18 18 18 19 20 20 20 20 20 21 20 21 21 21 22 21 21 22 22 21 20 20 20 19 19 18 16 15 13 12 11 10 9 8 8 7 6 6 6 6 7 9 10 11
18 18 18 19 19 20 20 20 20 20 20 20 20 20 20 20 20 20 20 20 20 19 19 19 19 18 17 16 15 14 13 12 11 10 9 9 8 8 8 8 9 10 11 12
18 18 19 19 19 19 19 19 19 19 19 19 19 19 19 19 19 19 20 20 20 19 19 19 19 18 18 17 17 16 15 14 13 12 11 11 11 10 10 10 10 11 12 13
19 19 19 19 18 18 18 18 18 18 19 18 18 18 19 19 19 19 19 19 20 20 19 19 19 19 19 18 18 17 17 17 16 15 15 14 14 13 12 11 11 12 12 13
19 19 19 18 18 17 17 18 18 18 18 18 18 19 19 19 20 19 19 19 19 19 19 19 19 19 20 19 19 20 19 19 18 17 17 16 16 16 15 14 13 13 12 13
18 18 18 18 18 17 17 18 17 18 18 18 18 19 19 20 20 20 19 19 19 19 19 19 20 20 20 20 20 20 20 20 20 19 19 18 18 18 18 17 16 15 14 13
17 17 17 18 17 17 17 17 17 17 17 17 18 18 18 19 19 19 19 19 19 19 19 19 19 20 20 21 21 21 21 21 21 21 21 20 20 20 20 19 19 18 17 15
16 17 17 17 17 17 16 16 16 16 16 16 16 16 17 17 17 17 18 18 18 19 19 19 19 19 19 20 20 21 21 21 22 22 22 22 22 22 22 22 21 21 20 18
13 15 16 16 17 17 16 15 15 15 15 14 14 14 14 15 15 16 16 16 17 17 17 17 17 17 18 18 19 19 19 20 21 21 22 22 23 23 23 23 23 23 22 21
11 13 14 14 15 16 16 14 13 13 13 13 12 12 12 13 13 14 14 14 15 15 16 16 15 15 16 16 17 18 18 19 19 20 21 22 22 23 23 23 24 24 24 23
9 10 12 12 13 14 15 15 13 12 12 11 11 10 10 10 10 11 11 12 12 13 13 14 14 14 14 15 16 16 17 17 18 19 20 21 21 22 23 23 24 24 24 24
7 8 9 10 11 12 13 14 13 11 10 10 9 9 8 8 8 8 9 9 10 11 12 12 12 13 13 13 14 15 16 17 17 18 19 20 20 21 22 22 23 24 24 24
7 7 7 8 8 10 10 11 12 11 10 8 8 8 7 7 6 6 7 7 8 9 9 10 11 12 12 13 13 14 15 16 17 18 18 19 19 20 20 21 22 23 24 24
8 7 6 6 7 7 8 9 10 10 9 8 7 7 7 7 6 6 6 7 7 7 7 8 9 10 10 11 12 13 14 15 16 17 17 18 19 19 19 20 21 22 22 23
9 8 8 7 7 7 7 7 7 8 8 8 7 6 6 7 7 6 6 6 7 7 6 7 7 8 8 9 10 11 13 14 15 16 17 18 18 18 19 19 20 20 21 21
11 10 10 9 9 8 8 8 7 7 7 7 6 6 6 7 7 7 7 7 7 7 6 6 6 7 7 7 8 9 11 12 14 15 16 16 17 17 18 18 18 18 19 19
14 13 12 11 10 10 10 10 9 9 8 7 7 7 6 7 8 8 8 8 8 7 7 7 7 7 6 6 7 8 9 10 11 13 14 15 15 16 16 16 17 17 17 17
17 16 15 14 13 12 12 12 12 12 11 11 10 9 8 8 8 8 8 8 8 8 8 8 8 7 7 7 7 7 7 8 9 10 11 13 13 14 15 15 15 15 15 15
22 20 19 17 16 16 15 14 14 14 14 14 13 13 12 11 11 10 10 9 9 9 9 9 9 9 8 8 8 8 8 8 8 8 9 10 11 12 13 13 13 13 13 13
26 25 23 22 21 20 19 18 17 17 17 17 17 17 16 16 15 14 13 12 11 11 10 10 10 10 10 9 9 9 9 9 9 8 8 8 9 10 10 11 11 11 11 11
31 30 29 27 26 25 24 22 22 21 21 21 20 20 20 20 19 18 18 17 16 14 14 13 12 11 11 11 11 10 10 10 10 10 9 9 9 9 9 9 9 9 9 9
37 35 34 33 32 30 29 28 27 26 25 25 24 24 24 23 23 22 22 21 20 19 18 17 15 14 13 13 13 13 12 12 11 11 11 11 10 10 9 9 9 8 8 8
43 42 41 39 37 36 34 33 32 31 30 29 28 28 27 27 27 26 26 25 25 24 22 21 20 19 17 16 15 15 15 14 14 13 13 12 12 12 11 11 10 9 9 8
48 48 47 46 44 42 41 39 38 36 35 34 33 33 32 31 30 30 29 29 29 28 27 26 25 23 22 21 19 18 17 17 17 16 16 15 15 14 14 14 13 12 12 11
53 53 52 51 49 48 46 45 43 41 40 39 38 38 37 36 35 34 33 33 32 32 31 30 29 28 27 26 24 23 21 20 19 18 18 18 18 18 17 17 16 16 15 15
55 56 55 55 54 52 51 49 48 46 45 44 43 43 42 41 39 38 38 37 37 36 35 35 34 33 32 31 29 28 26 25 23 22 21 20 20 20 20 20 20 19 19 18
Wind_Direction
31 35 38 39 40 41 40 40 41 43 45 46 48 50 52 53 54 53 54 57 61 64 70 71 73 77 80 80 77 74 72 68 60 52 43 33 21 5 346 321 303 293 282 274
30 34 39 41 41 42 42 41 41 44 46 45 46 49 52 55 56 58 60 61 63 65 67 69 72 73 72 71 67 63 59 53 48 42 32 24 9 353 336 318 303 291 285 281
34 35 39 42 40 41 41 41 42 43 45 46 47 49 51 54 56 58 59 61 62 63 66 68 69 69 67 66 63 60 55 49 42 33 23 14 4 351 338 325 314 303 296 290
36 36 40 40 39 40 41 41 40 42 44 47 47 49 52 54 57 59 60 62 64 66 67 66 65 64 62 60 57 54 49 43 38 33 28 20 10 360 349 337 328 318 309 302
36 37 39 39 38 38 39 40 39 41 43 48 50 53 54 56 59 62 63 63 64 66 65 64 63 61 59 57 54 51 48 45 42 40 35 28 20 13 4 354 342 332 323 317
36 36 37 37 37 37 38 41 39 41 44 49 53 55 56 59 62 64 65 65 65 64 63 62 61 59 57 56 54 52 50 48 45 41 37 32 27 23 18 11 2 352 342 335
34 34 36 35 36 37 39 40 41 44 48 52 55 57 60 61 63 64 65 65 64 63 62 61 60 59 58 57 55 52 50 48 45 42 39 36 33 29 26 22 16 8 359 352
34 34 34 33 34 37 40 41 43 45 49 53 56 58 61 62 63 63 64 64 63 63 62 61 60 58 57 55 54 53 50 47 45 43 42 40 37 33 29 26 22 18 14 9
32 33 34 33 33 35 38 41 43 46 50 53 56 59 61 62 62 62 62 62 62 62 60 59 58 56 55 54 53 52 49 47 45 44 43 41 38 35 33 30 28 26 24 21
26 28 30 31 31 33 36 40 43 46 49 52 55 59 62 63 62 61 61 61 60 59 57 57 56 54 53 51 49 48 46 44 42 41 40 38 37 35 34 32 31 30 30 30
15 21 26 28 30 32 35 38 41 44 47 50 53 58 61 63 62 60 58 58 57 55 53 52 51 50 49 47 46 45 42 40 39 38 36 35 34 34 34 33 32 32 33 35
357 6 15 22 26 30 33 35 38 40 43 46 50 54 58 60 59 57 54 53 51 49 48 48 47 46 45 43 41 40 37 35 33 33 31 31 31 31 32 33 33 33 34 36
330 346 0 10 19 24 29 31 33 36 37 39 42 45 49 51 50 50 47 45 43 42 43 43 41 40 39 38 37 36 34 32 29 28 28 28 29 30 32 34 35 36 37 39
305 318 336 352 4 12 19 24 27 30 30 31 34 35 36 35 34 33 31 31 31 32 33 34 35 35 34 33 32 32 31 29 28 26 26 27 27 29 31 33 35 37 39 41
294 299 309 323 338 352 2 10 18 22 24 25 24 24 22 19 14 12 13 14 15 16 18 22 25 28 30 30 28 28 28 28 27 27 26 27 27 28 30 32 34 37 39 42
289 293 295 299 306 316 329 343 354 3 10 15 15 11 8 6 1 352 346 349 353 357 0 5 11 15 20 23 25 26 26 27 27 27 27 27 27 29 31 32 34 37 40 43
282 285 288 290 292 294 298 306 317 329 340 348 355 357 356 353 352 349 340 331 331 337 341 342 345 351 359 6 12 17 19 22 24 24 25 25 26 27 30 33 35 37 40 43
273 276 280 283 285 285 286 288 292 297 304 315 322 328 332 336 341 343 341 335 329 325 325 324 323 326 332 340 349 357 5 11 15 18 20 21 22 24 27 31 34 37 40 43
267 269 272 276 279 281 281 281 282 283 285 289 294 299 304 309 316 324 330 332 331 327 320 312 312 314 314 313 320 331 340 349 357 5 10 14 16 19 22 26 31 36 39 41
263 264 266 269 272 275 277 278 278 278 278 279 281 282 285 289 294 299 303 310 319 325 322 312 303 302 304 303 302 305 313 322 331 342 352 1 8 11 15 18 22 28 33 37
259 261 263 265 267 269 272 274 276 276 276 275 275 276 277 279 281 284 287 290 295 301 308 314 311 301 295 295 295 296 297 300 307 315 324 335 346 356 2 7 11 16 21 27
258 259 261 262 264 265 267 270 272 273 274 274 274 274 274 275 275 276 277 279 282 286 289 293 299 301 297 291 288 288 290 290 292 295 300 308 317 327 337 346 353 360 5 10
259 259 260 261 262 263 265 266 267 269 270 271 272 272 272 272 273 273 274 275 276 277 279 281 284 287 291 290 287 283 282 282 282 283 285 288 293 300 308 316 326 334 341 347
257 258 259 260 260 262 262 263 264 265 267 268 269 269 269 269 270 270 271 272 273 274 274 274 275 277 279 283 284 282 278 276 276 277 277 278 279 282 286 291 298 304 311 316
253 255 257 258 259 260 261 262 263 264 264 265 265 266 266 267 267 268 268 269 270 271 271 272 271 272 273 274 276 278 278 276 273 272 272 272 273 274 275 277 280 283 288 292
251 253 255 256 258 259 259 260 261 262 263 263 263 263 264 264 265 266 266 267 267 268 268 269 269 269 269 270 270 271 273 273 273 271 270 269 268 268 269 270 271 273 274 277
251 252 254 255 257 257 258 259 259 260 260 261 261 262 262 262 263 263 263 264 265 265 266 266 267 267 268 267 267 268 268 269 269 270 270 269 267 267 266 266 266 266 267 268
Height
5867 5862 5858 5855 5851 5846 5843 5839 5835 5831 5826 5823 5819 5815 5811 5808 5805 5802 5799 5797 5795 5793 5791 5790 5789 5788 5788 5789 5789 5789 5789 5789 5789 5788 5788 5787 5786 5785 5785 5784 5783 5783 5782 5782
5869 5865 5861 5857 5853 5849 5846 5842 5838 5834 5831 5827 5823 5819 5816 5813 5810 5807 5805 5803 5801 5798 5797 5796 5795 5794 5793 5793 5792 5792 5791 5791 5790 5789 5788 5787 5786 5785 5784 5783 5782 5781 5780 5779
5872 5868 5864 5860 5856 5852 5849 5845 5842 5838 5835 5831 5827 5824 5821 5818 5815 5813 5810 5808 5806 5804 5803 5801 5800 5799 5798 5797 5796 5795 5794 5793 5792 5790 5789 5787 5786 5784 5783 5781 5780 5778 5777 5776
5874 5871 5866 5865 5859 5855 5852 5849 5845 5842 5838 5835 5832 5829 5825 5823 5820 5817 5815 5813 5811 5809 5808 5806 5805 5803 5802 5801 5799 5798 5796 5795 5793 5791 5789 5788 5786 5784 5782 5780 5778 5776 5774 5772
5875 5872 5869 5866 5862 5858 5855 5852 5849 5845 5842 5839 5836 5833 5830 5827 5824 5822 5820 5818 5816 5815 5813 5811 5810 5808 5806 5804 5803 5801 5799 5797 5795 5793 5791 5788 5786 5783 5781 5778 5776 5773 5771 5769
5877 5874 5871 5869 5864 5861 5859 5855 5852 5848 5845 5842 5840 5837 5835 5832 5829 5827 5825 5823 5821 5819 5818 5816 5814 5812 5810 5808 5806 5804 5802 5800 5797 5795 5792 5790 5787 5784 5781 5778 5775 5772 5769 5766
5879 5876 5873 5870 5866 5863 5861 5859 5855 5851 5849 5846 5843 5841 5839 5836 5834 5832 5830 5828 5826 5824 5822 5821 5819 5817 5815 5813 5810 5808 5806 5803 5800 5797 5795 5792 5789 5785 5782 5779 5775 5771 5768 5764
5881 5878 5878 5872 5868 5866 5864 5860 5857 5854 5852 5849 5847 5845 5843 5840 5838 5836 5834 5833 5831 5829 5827 5825 5823 5821 5819 5817 5815 5812 5810 5807 5804 5800 5797 5794 5791 5787 5784 5780 5776 5772 5768 5764
5884 5883 5878 5874 5871 5868 5865 5862 5859 5857 5855 5853 5850 5848 5846 5844 5842 5841 5839 5837 5835 5834 5832 5830 5828 5826 5824 5821 5819 5816 5814 5811 5808 5804 5801 5797 5794 5790 5786 5782 5778 5773 5769 5764
5885 5882 5879 5876 5873 5870 5867 5864 5862 5859 5857 5855 5853 5851 5850 5848 5846 5845 5843 5841 5839 5838 5836 5834 5832 5830 5828 5825 5823 5820 5817 5814 5811 5808 5804 5801 5797 5793 5789 5785 5780 5776 5771 5766
5885 5883 5880 5877 5874 5872 5869 5866 5864 5862 5859 5857 5856 5854 5852 5851 5849 5848 5846 5845 5843 5841 5839 5837 5835 5833 5831 5829 5826 5824 5821 5818 5815 5811 5808 5804 5801 5797 5792 5788 5783 5779 5774 5769
5885 5883 5881 5879 5876 5873 5870 5868 5865 5863 5861 5859 5858 5856 5855 5853 5852 5850 5849 5848 5846 5844 5842 5840 5838 5836 5834 5832 5829 5827 5824 5821 5818 5815 5811 5808 5804 5800 5796 5792 5787 5782 5778 5773
5884 5883 5881 5879 5876 5874 5871 5869 5867 5865 5863 5861 5859 5858 5857 5855 5854 5852 5851 5850 5848 5846 5845 5843 5841 5839 5836 5834 5832 5829 5827 5824 5821 5817 5814 5811 5807 5803 5799 5795 5791 5787 5782 5778
5882 5881 5880 5878 5876 5874 5872 5870 5868 5866 5864 5862 5861 5859 5858 5856 5855 5854 5852 5851 5850 5848 5846 5845 5843 5841 5839 5836 5834 5832 5829 5826 5823 5820 5817 5813 5810 5806 5803 5799 5795 5791 5787 5783
5880 5879 5878 5877 5875 5874 5872 5870 5868 5866 5864 5863 5861 5860 5858 5857 5856 5854 5853 5852 5850 5849 5847 5846 5844 5842 5840 5838 5836 5834 5831 5829 5826 5823 5819 5816 5813 5809 5806 5802 5799 5795 5791 5788
5876 5876 5875 5874 5873 5872 5871 5870 5868 5867 5865 5863 5861 5860 5859 5857 5856 5854 5853 5852 5850 5849 5848 5846 5845 5843 5842 5840 5838 5835 5833 5830 5828 5825 5822 5819 5816 5812 5809 5806 5803 5799 5796 5793
5872 5872 5871 5871 5871 5870 5869 5868 5867 5866 5864 5863 5861 5860 5858 5857 5856 5854 5853 5851 5850 5849 5847 5846 5845 5843 5842 5840 5839 5837 5835 5832 5830 5827 5824 5821 5818 5815 5812 5809 5806 5803 5800 5797
5867 5867 5867 5867 5867 5866 5866 5865 5864 5864 5863 5862 5860 5859 5858 5856 5855 5853 5852 5850 5849 5847 5846 5845 5844 5843 5841 5840 5839 5837 5835 5834 5831 5829 5826 5824 5821 5818 5815 5812 5809 5807 5804 5801
5861 5862 5862 5862 5862 5862 5862 5861 5861 5860 5859 5859 5858 5857 5856 5855 5853 5852 5851 5849 5848 5846 5845 5844 5843 5841 5840 5839 5838 5837 5835 5834 5832 5830 5828 5826 5823 5820 5818 5815 5812 5810 5807 5805
5854 5855 5856 5856 5856 5856 5856 5856 5856 5856 5855 5855 5854 5853 5853 5852 5851 5850 5849 5848 5846 5845 5843 5842 5841 5840 5839 5838 5837 5836 5835 5833 5832 5830 5829 5827 5824 5822 5819 5817 5814 5812 5810 5808
5846 5847 5848 5849 5849 5850 5850 5850 5850 5850 5850 5850 5849 5849 5848 5848 5847 5846 5845 5845 5844 5843 5841 5840 5838 5837 5836 5835 5834 5833 5833 5832 5831 5829 5828 5826 5825 5823 5820 5818 5816 5814 5812 5810
5836 5838 5839 5840 5841 5842 5842 5843 5843 5843 5843 5843 5843 5843 5843 5842 5842 5841 5841 5840 5840 5839 5838 5837 5835 5834 5833 5832 5831 5831 5830 5829 5828 5827 5826 5825 5824 5822 5821 5819 5817 5815 5813 5811
5825 5826 5828 5829 5831 5832 5833 5834 5834 5835 5835 5835 5836 5836 5836 5835 5835 5835 5835 5834 5834 5833 5833 5832 5831 5830 5829 5828 5828 5827 5826 5825 5824 5824 5823 5822 5821 5820 5819 5818 5816 5815 5813 5811
5811 5813 5815 5817 5819 5821 5822 5823 5824 5825 5826 5826 5826 5827 5827 5827 5827 5827 5827 5827 5827 5827 5826 5826 5826 5825 5825 5824 5823 5822 5821 5821 5820 5820 5819 5818 5818 5817 5816 5815 5814 5813 5812 5810
5797 5798 5800 5803 5805 5807 5809 5810 5812 5814 5815 5815 5816 5816 5817 5817 5818 5818 5818 5818 5818 5818 5818 5818 5818 5818 5818 5818 5817 5817 5816 5815 5815 5814 5814 5813 5813 5812 5812 5811 5811 5810 5809 5808
5781 5783 5785 5787 5790 5792 5794 5796 5798 5800 5801 5803 5803 5804 5805 5806 5807 5807 5808 5808 5808 5809 5809 5809 5809 5810 5810 5810 5810 5810 5810 5809 5809 5808 5808 5807 5807 5807 5806 5806 5805 5805 5804 5804
5763 5766 5768 5771 5773 5775 5778 5780 5783 5785 5786 5788 5790 5790 5791 5793 5794 5795 5796 5796 5797 5798 5798 5798 5799 5800 5800 5801 5801 5801 5802 5802 5801 5801 5801 5801 5800 5800 5800 5799 5799 5799 5798 5798